Location: Derby
(52.9213°N, 1.4761°W)
Time: 14:45:47
(UTC+01:00)

A-11 Canister half - Visible Passes

Search period start: 18 May 2025 00:00
Search period end: 28 May 2025 00:00
Orbit: 1515 x 1684 km, 47.2° (Epoch: 17 May)

Date Brightness Start Highest point End Pass type
(mag) Time Alt. Az. Time Alt. Az. Time Alt. Az.
18 May 9.2 01:50:20 18° SW 01:57:07 47° SSE 02:05:47 10° E visible
18 May 9.0 03:51:59 10° WSW 04:01:08 63° S 04:10:11 10° E visible
18 May 10.0 23:29:05 18° SSE 23:31:07 19° SE 23:37:11 10° E visible
19 May 9.2 01:27:08 16° SW 01:34:10 45° SSE 01:42:47 10° E visible
19 May 9.0 03:28:59 10° WSW 03:38:09 62° S 03:47:12 10° E visible
19 May 10.1 23:05:21 16° SSE 23:08:14 18° SE 23:14:00 10° E visible
20 May 9.2 01:03:20 13° SW 01:11:14 44° SSE 01:19:47 10° E visible
20 May 9.0 03:06:00 10° WSW 03:15:10 62° S 03:24:13 10° E visible
20 May 10.1 22:39:50 10° SSE 22:45:22 17° SE 22:50:48 10° E visible
21 May 9.2 00:39:36 10° SW 00:48:17 42° SSE 00:56:47 10° E visible
21 May 9.0 02:43:01 10° WSW 02:52:12 62° S 03:01:14 10° E visible
21 May 10.1 22:17:19 10° SSE 22:22:29 16° SE 22:27:34 10° E visible
22 May 9.3 00:16:43 10° SW 00:25:20 41° SSE 00:33:46 10° E visible
22 May 9.0 02:20:01 10° WSW 02:29:13 61° S 02:38:16 10° E visible
22 May 10.2 21:54:52 10° SSE 21:59:36 15° SE 22:04:16 10° E visible
22 May 9.3 23:53:49 10° SSW 00:02:24 39° SSE 00:10:47 10° E visible
23 May 8.9 01:57:01 10° WSW 02:06:15 61° S 02:15:17 10° E visible
23 May 9.1 04:01:23 10° W 04:10:24 56° SSW 04:19:18 10° ESE visible
23 May 9.3 23:30:57 10° SSW 23:39:28 38° SSE 23:47:46 10° E visible
24 May 8.9 01:34:02 10° WSW 01:43:16 60° S 01:52:18 10° E visible
24 May 9.0 03:38:23 10° W 03:47:26 57° SSW 03:56:22 10° ESE visible
24 May 9.4 23:08:05 10° SSW 23:16:32 37° SSE 23:24:45 10° E visible
25 May 8.9 01:11:03 10° WSW 01:20:18 60° S 01:29:19 10° E visible
25 May 9.0 03:15:22 10° W 03:24:28 58° SSW 03:33:26 10° ESE visible
25 May 9.4 22:45:14 10° SSW 22:53:35 35° SE 23:01:45 10° E visible
26 May 9.0 00:48:03 10° WSW 00:57:19 59° SSE 01:06:20 10° E visible
26 May 9.0 02:52:21 10° W 03:01:30 59° SSW 03:10:29 10° ESE visible
26 May 9.5 22:22:23 10° SSW 22:30:40 34° SE 22:38:43 10° E visible
27 May 9.0 00:25:04 10° WSW 00:34:20 58° SSE 00:43:22 10° E visible
27 May 9.0 02:29:21 10° W 02:38:31 60° S 02:47:32 10° ESE visible
27 May 9.5 21:59:32 10° SSW 22:07:43 32° SE 22:15:41 10° E visible
